#timestamp,LO_Frequency,Hit,StdDev 
1549090815.4,286046998.2,N
1549090835.2,286046998.3,N
1549090855.0,286047002.6,N
1549090856.0,286047002.6,N
1549090875.8,286047006.0,N
1549090895.6,286047003.8,N
1549090915.5,286047002.9,N
1549090935.3,286047005.3,N
1549090955.1,286047007.9,N
1549090975.9,286047006.8,N
1549090995.7,286047008.2,N
1549091045.6,286047004.7,E
1549091055.5,286047004.9,N
1549091075.3,286047004.8,P
1549091095.2,286047004.0,P
1549091115.0,286046999.7,N
1549091115.9,286046999.7,N
1549091135.8,286046995.0,N
1549091155.6,286046990.9,N
1549091175.4,286046996.1,N
1549091195.3,286046997.5,N
1549091215.1,286046990.9,N
1549091235.9,286046987.8,N
1549091255.7,286046983.8,N
1549091275.5,286046985.9,N
1549091295.4,286046987.2,N
1549091315.2,286046992.9,N
1549091335.0,286046998.7,N
1549091335.9,286046998.7,N
1549091355.8,286046993.4,N
1549091375.6,286046995.0,N
1549091395.5,286046994.9,N
1549091415.3,286046993.3,N
1549091435.1,286046992.4,N
1549091455.9,286046992.1,N
1549091475.7,286046997.7,N
1549091495.6,286046994.6,N
1549091515.4,286046994.5,N
1549091535.2,286046993.9,N
1549091555.1,286046990.3,N
1549091556.0,286046990.3,N
1549091575.8,286046991.9,N
1549091595.6,286046991.8,N
1549091615.5,286046991.1,N
1549091635.3,286046992.9,N
1549091655.2,286046993.1,N
1549091675.9,286046985.3,Y
1549091695.7,286046996.9,P
1549091715.6,286046996.6,N
1549091735.4,286047005.4,N
1549091755.3,286047005.9,N
1549091775.1,286047009.0,N
1549091776.0,286047009.0,N
1549091795.8,286047010.1,N
1549091815.7,286047011.8,N
1549091835.5,286047008.8,N
1549091855.3,286047013.2,N
1549091875.2,286047015.5,N
1549091895.0,286047018.3,N
1549091895.9,286047018.3,N
1549091915.8,286047021.6,N
1549091935.6,286047016.8,N
1549091955.4,286047012.9,N
1549091975.3,286047008.8,N
1549091995.1,286047003.1,N
1549092015.9,286047001.4,N
1549092035.7,286047006.0,N
1549092055.5,286047008.5,N
1549092075.4,286047011.7,N
1549092095.2,286047015.4,N
1549092115.0,286047007.9,N
1549092115.9,286047007.9,N
1549092135.8,286047008.1,N
1549092155.6,286047010.9,N
1549092175.5,286047012.2,N
1549092195.3,286047008.8,N
1549092215.1,286047006.4,N
1549092235.9,286047007.1,N
1549092255.7,286047002.9,N
1549092275.5,286046999.9,N
1549092295.4,286047000.6,N
1549092315.2,286047005.8,N
1549092335.1,286047009.7,N
1549092336.0,286047009.7,N
1549092355.8,286047014.0,N
1549092375.6,286047005.0,N
1549092395.5,286047005.3,N
1549092415.3,286047000.3,N
1549092435.2,286046999.6,N
1549092455.9,286047000.4,N
1549092475.7,286047001.1,N
1549092495.6,286047002.4,N
1549092515.4,286047003.0,N
1549092535.2,286046999.8,N
1549092555.1,286046998.5,N
1549092556.0,286046998.5,N
1549092575.8,286046998.1,N
1549092595.7,286046997.1,N
1549092615.5,286046993.2,N
1549092635.3,286046986.3,N
1549092655.2,286046988.2,N
1549092675.0,286046987.9,N
1549092675.9,286046987.9,N
1549092695.8,286046996.1,N
1549092715.6,286046996.0,N
1549092735.4,286046998.8,N
1549092755.3,286047000.4,N
1549092775.1,286047000.4,N
1549092795.8,286046999.5,N
1549092815.7,286047006.0,N
1549092835.5,286046998.2,N
1549092855.4,286047002.6,N
1549092875.2,286047007.2,N
1549092895.0,286047006.0,N
1549092895.9,286047006.0,N
1549092915.8,286047004.6,N
1549092935.6,286047001.9,N
1549092955.4,286046999.2,N
1549092975.3,286047001.1,N
1549092995.1,286047005.3,N
1549093015.9,286047005.5,N
1549093035.7,286047004.1,N
1549093055.5,286046999.1,N
1549093075.4,286047000.0,N
1549093095.2,286046995.3,N
1549093115.1,286046990.7,N
1549093116.0,286046990.7,N
1549093135.8,286046992.4,N
1549093155.6,286046996.0,N
1549093175.5,286046994.2,N
1549093195.3,286046993.0,N
1549093215.1,286046995.4,N
1549093235.9,286047002.9,N
1549093255.7,286047013.1,N
1549093275.6,286047014.7,N
1549093295.4,286047016.4,N
1549093315.2,286047017.4,N
1549093335.1,286047020.1,N
1549093336.0,286047020.1,N
1549093355.8,286047024.9,N
1549093375.7,286047024.1,N
1549093395.5,286047023.7,N
1549093415.3,286047021.7,N
1549093435.2,286047020.6,N
1549093455.0,286047017.1,N
1549093455.9,286047017.1,N
1549093475.7,286047015.0,N
1549093495.6,286047008.8,N
1549093515.4,286047007.0,N
1549093535.3,286047003.1,N
1549093555.1,286047003.7,N
1549093556.0,286047003.7,N
1549093575.8,286047005.4,N
1549093595.7,286047004.2,N
1549093615.5,286046999.0,N
1549093635.4,286047010.4,N
1549093655.2,286047011.7,N
1549093675.0,286047011.4,N
1549093675.9,286047011.4,N
1549093695.8,286047012.1,N
1549093715.6,286047009.8,N
1549093735.4,286047013.7,N
1549093755.3,286047012.7,N
1549093775.1,286047015.8,N
1549093795.9,286047023.2,Y
1549093815.7,286047007.8,P
1549093835.5,286047001.6,N
1549093855.4,286047003.9,N
1549093875.2,286046995.8,N
1549093895.1,286046995.2,N
1549093896.0,286046995.2,N
1549093915.8,286046996.5,N
1549093935.6,286046996.7,N
1549093955.5,286047004.3,N
1549093975.3,286047006.0,N
1549093995.1,286047005.5,N
1549094015.9,286047000.8,N
1549094035.7,286046997.4,N
1549094055.6,286047005.9,N
1549094075.4,286047008.7,N
1549094095.2,286047006.0,N
1549094115.1,286047003.7,N
1549094116.0,286047003.7,N
1549094135.8,286047004.6,N
1549094155.7,286047006.2,N
1549094175.5,286047003.2,N
1549094195.3,286046998.5,N
1549094215.2,286046998.1,N
1549094235.0,286046995.9,N
1549094235.9,286046995.9,N
1549094255.7,286046993.8,N
1549094275.6,286046993.3,N
1549094295.4,286046995.5,N
1549094315.3,286047002.8,N
1549094335.1,286047005.6,N
1549094355.8,286047011.3,N
1549094375.7,286047011.0,N
1549094395.5,286047011.9,N
